Home   Weather   Hartford   Past weeks

Flag for USA Past Weather in Hartford, Connecticut, USA — Yesterday and Last 2 Weeks

Now
69 °F

Passing clouds.


Feels Like: 69 °F
Forecast: 56 / 81 °F
Wind: 5 mph from Southeast

Location: Hartford-Brainard Airport

Current Time: Apr 28, 2017 at 12:29:45 pm

Latest Report: Apr 28, 2017 at 11:53 am


Visibility: 10 mi

Pressure: 29.98 "Hg

Humidity: 76%

Dew Point: 61 °F

Location of HartfordLocation

Past Weather in Hartford — Graph

°F

Hartford Temperature Yesterday

Maximum temperature yesterday: 68 °F (at 4:53 pm)
Minimum temperature yesterday: 57 °F (at 3:53 am)
Average temperature yesterday: 61 °F

High & Low Weather Summary for the Past Weeks

 TemperatureHumidityPressure
High85 °F (Apr 16, 3:53 pm)100% (Apr 26, 9:53 pm)30.56 "Hg (Apr 26, 9:53 pm)
Low38 °F (Apr 14, 4:53 am)21% (Apr 14, 5:53 pm)29.69 "Hg (Apr 16, 6:53 pm)
Average55 °F72%30.09 "Hg
* Reported Apr 13 10:53 am — Apr 28 10:53 am, Hartford, Weather by CustomWeather, © 2017

Note: Actual official high and low records may vary slightly from our data, if they occured in-between our weather recording intervals... More about our weather records

Advertising

Hartford Weather History for the Previous 24 Hours

Scroll right to see more
 ConditionsComfort  
Time TempWeatherWind HumidityBarometerVisibility
10:53 am
Fri, Apr 28
64 °FOvercast.5 mph87%29.98 "Hg10 mi
10:44 am64 °FOvercast.6 mph87%29.98 "Hg10 mi
9:53 am61 °FLow clouds.6 mph93%29.97 "Hg10 mi
8:53 am59 °FLow clouds.5 mph96%29.96 "Hg7 mi
8:14 am58 °FFog.6 mph100%29.95 "Hg3 mi
7:53 am59 °FFog.6 mph96%29.94 "Hg2 mi
7:15 am58 °FFog.5 mph100%29.95 "Hg3 mi
6:53 am58 °FFog.6 mph100%29.94 "Hg1 mi
5:53 am58 °FFog.5 mph100%29.90 "Hg2 mi
5:41 am58 °FFog.5 mph100%29.91 "Hg2 mi
4:53 am59 °FFog.No wind100%29.90 "Hg2 mi
4:43 am59 °FFog.No wind100%29.90 "Hg2 mi
3:53 am58 °FFog.No wind100%29.88 "Hg2 mi
3:34 am58 °FFog.5 mph100%29.88 "Hg4 mi
2:53 am59 °FFog.3 mph96%29.90 "Hg3 mi
1:53 am59 °FFog.5 mph96%29.89 "Hg4 mi
12:53 am59 °FLow clouds.5 mph93%29.90 "Hg10 mi
11:53 pm
Thu, Apr 27
58 °FLow clouds.3 mph93%29.91 "Hg10 mi
11:08 pm59 °FLow clouds.7 mph90%29.93 "Hg10 mi
10:53 pm59 °FOvercast.7 mph90%29.93 "Hg10 mi
10:19 pm59 °FMostly cloudy.8 mph90%29.93 "Hg10 mi
9:53 pm60 °FMostly cloudy.7 mph83%29.92 "Hg10 mi
8:53 pm62 °FMostly cloudy.8 mph80%29.91 "Hg10 mi
7:53 pm63 °FOvercast.9 mph81%29.90 "Hg10 mi
6:53 pm65 °FOvercast.13 mph76%29.89 "Hg10 mi
5:53 pm67 °FOvercast.5 mph73%29.87 "Hg10 mi
4:53 pm68 °FMostly cloudy.5 mph70%29.87 "Hg10 mi
3:53 pm66 °FOvercast.7 mph75%29.88 "Hg10 mi
2:53 pm66 °FOvercast.6 mph75%29.90 "Hg10 mi
1:53 pm65 °FMostly cloudy.5 mph76%29.90 "Hg10 mi
12:53 pm64 °FOvercast.3 mph75%29.91 "Hg10 mi
Weather by CustomWeather, © 2017

See weather overviewHow to use our weather pages